| time (UTC) | temp F | wind direction | speed MPH | gust MPH | rain 1hr in | rain 24hr in | rain mn in | humidity % | barometer mb |
| 20260505053205 | 58 | 55 | 6.0 | 8.0 | 0.00 | 0.00 | 0.00 | 63 | 1020.5 |
| 20260505052605 | 57 | 76 | 4.0 | 6.0 | 0.00 | 0.00 | 0.00 | 64 | 1020.6 |
| 20260505052005 | 57 | 96 | 4.0 | 5.0 | 0.00 | 0.00 | 0.00 | 63 | 1020.6 |
| 20260505051405 | 56 | 53 | 1.0 | 3.0 | 0.00 | 0.00 | 0.00 | 67 | 1020.6 |
| 20260505050805 | 56 | 44 | 0.0 | 3.0 | 0.00 | 0.00 | 0.00 | 67 | 1020.6 |
| 20260505050205 | 57 | 69 | 0.0 | 4.0 | 0.00 | 0.00 | 0.00 | 65 | 1020.6 |
| 20260505041405 | 62 | 95 | 0.0 | 4.0 | 0.00 | 0.00 | 0.00 | 55 | 1020.5 |
| 20260505040805 | 63 | 73 | 3.0 | 6.0 | 0.00 | 0.00 | 0.00 | 52 | 1020.5 |
| 20260505040205 | 64 | 91 | 0.0 | 4.0 | 0.00 | 0.00 | 0.00 | 51 | 1020.5 |
| 20260505035605 | 65 | 83 | 1.0 | 4.0 | 0.00 | 0.00 | 0.00 | 51 | 1020.4 |
| 20260505035017 | 64 | 54 | 0.0 | 3.0 | 0.00 | 0.00 | 0.00 | 51 | 1020.4 |
| 20260505034405 | 66 | 97 | 2.0 | 3.0 | 0.00 | 0.00 | 0.00 | 49 | 1020.4 |
| 20260505033805 | 66 | 144 | 0.0 | 7.0 | 0.00 | 0.00 | 0.00 | 49 | 1020.4 |
| 20260505033205 | 66 | 131 | 2.0 | 7.0 | 0.00 | 0.00 | 0.00 | 48 | 1020.4 |
| 20260505032605 | 67 | 134 | 2.0 | 6.0 | 0.00 | 0.00 | 0.00 | 48 | 1020.3 |
| 20260505032005 | 66 | 138 | 0.0 | 7.0 | 0.00 | 0.00 | 0.00 | 48 | 1020.3 |
| 20260505031405 | 67 | 132 | 2.0 | 7.0 | 0.00 | 0.00 | 0.00 | 47 | 1020.3 |
| 20260505030829 | 67 | 136 | 0.0 | 4.0 | 0.00 | 0.00 | 0.00 | 48 | 1020.2 |
| 20260505030229 | 67 | 74 | 1.0 | 6.0 | 0.00 | 0.00 | 0.00 | 47 | 1020.1 |
| 20260505025605 | 67 | 149 | 2.0 | 6.0 | 0.00 | 0.00 | 0.00 | 47 | 1020.0 |
| 20260505025017 | 67 | 145 | 2.0 | 6.0 | 0.00 | 0.00 | 0.00 | 47 | 1020.0 |
| 20260505024405 | 68 | 185 | 0.0 | 5.0 | 0.00 | 0.00 | 0.00 | 47 | 1020.0 |
| 20260505023805 | 68 | 142 | 2.0 | 6.0 | 0.00 | 0.00 | 0.00 | 46 | 1019.8 |
| 20260505023205 | 69 | 115 | 0.0 | 7.0 | 0.00 | 0.00 | 0.00 | 45 | 1019.7 |
| 20260505022605 | 69 | 152 | 2.0 | 4.0 | 0.00 | 0.00 | 0.00 | 45 | 1019.5 |
| 20260505022005 | 67 | 290 | 0.0 | 3.0 | 0.00 | 0.00 | 0.00 | 51 | 1019.5 |
| 20260505021405 | 69 | 53 | 0.0 | 6.0 | 0.00 | 0.00 | 0.00 | 48 | 1019.4 |
| 20260505020805 | 69 | 109 | 1.0 | 5.0 | 0.00 | 0.00 | 0.00 | 45 | 1019.3 |
| 20260505020205 | 70 | 140 | 2.0 | 10.0 | 0.00 | 0.00 | 0.00 | 45 | 1019.2 |
| 20260505015605 | 71 | 96 | 4.0 | 9.0 | 0.00 | 0.00 | 0.00 | 43 | 1019.1 |
| 20260505015005 | 71 | 99 | 4.0 | 9.0 | 0.00 | 0.00 | 0.00 | 43 | 1019.1 |
| 20260505014405 | 72 | 93 | 4.0 | 8.0 | 0.00 | 0.00 | 0.00 | 42 | 1019.1 |
| 20260505013805 | 72 | 100 | 5.0 | 8.0 | 0.00 | 0.00 | 0.00 | 42 | 1019.0 |
| 20260505013205 | 72 | 110 | 6.0 | 12.0 | 0.00 | 0.00 | 0.00 | 42 | 1019.0 |
| 20260505012605 | 73 | 149 | 4.0 | 7.0 | 0.00 | 0.00 | 0.00 | 42 | 1019.0 |
| 20260505012005 | 73 | 173 | 3.0 | 6.0 | 0.00 | 0.00 | 0.00 | 42 | 1019.0 |
| 20260505010805 | 74 | 102 | 0.0 | 10.0 | 0.00 | 0.00 | 0.00 | 42 | 1018.9 |
| 20260505010205 | 75 | 102 | 7.0 | 11.0 | 0.00 | 0.00 | 0.00 | 40 | 1018.7 |
| 20260505005605 | 75 | 104 | 6.0 | 11.0 | 0.00 | 0.00 | 0.00 | 39 | 1018.7 |
| 20260505005005 | 76 | 80 | 6.0 | 12.0 | 0.00 | 0.00 | 0.00 | 39 | 1018.6 |
| 20260505004405 | 76 | 87 | 6.0 | 13.0 | 0.00 | 0.00 | 0.00 | 38 | 1018.5 |
| 20260505003805 | 77 | 97 | 5.0 | 12.0 | 0.00 | 0.00 | 0.00 | 37 | 1018.5 |
| 20260505003205 | 77 | 100 | 6.0 | 12.0 | 0.00 | 0.00 | 0.00 | 37 | 1018.4 |
| 20260505002605 | 77 | 112 | 5.0 | 11.0 | 0.00 | 0.00 | 0.00 | 36 | 1018.4 |
| 20260505002005 | 77 | 106 | 4.0 | 11.0 | 0.00 | 0.00 | 0.00 | 37 | 1018.4 |
| 20260505001417 | 77 | 107 | 6.0 | 13.0 | 0.00 | 0.00 | 0.00 | 36 | 1018.4 |
| 20260505000805 | 78 | 76 | 6.0 | 11.0 | 0.00 | 0.00 | 0.00 | 36 | 1018.4 |
| 20260505000205 | 78 | 100 | 6.0 | 12.0 | 0.00 | 0.00 | 0.00 | 36 | 1018.4 |
| 20260504235606 | 78 | 121 | 6.0 | 14.0 | 0.00 | 0.00 | 0.00 | 35 | 1018.4 |
| 20260504235005 | 79 | 97 | 8.0 | 14.0 | 0.00 | 0.00 | 0.00 | 35 | 1018.4 |
| 20260504234405 | 79 | 103 | 5.0 | 16.0 | 0.00 | 0.00 | 0.00 | 35 | 1018.3 |
| 20260504233831 | 79 | 91 | 10.0 | 20.0 | 0.00 | 0.00 | 0.00 | 35 | 1018.4 |
| 20260504233205 | 79 | 81 | 8.0 | 17.0 | 0.00 | 0.00 | 0.00 | 35 | 1018.3 |
| 20260504232605 | 80 | 99 | 10.0 | 18.0 | 0.00 | 0.00 | 0.00 | 34 | 1018.3 |
| 20260504232005 | 80 | 95 | 8.0 | 14.0 | 0.00 | 0.00 | 0.00 | 34 | 1018.3 |
| 20260504231405 | 81 | 98 | 9.0 | 14.0 | 0.00 | 0.00 | 0.00 | 33 | 1018.4 |
| 20260504230805 | 81 | 99 | 8.0 | 16.0 | 0.00 | 0.00 | 0.00 | 33 | 1018.3 |
| 20260504230217 | 82 | 100 | 7.0 | 9.0 | 0.00 | 0.00 | 0.00 | 32 | 1018.3 |
| 20260504225605 | 83 | 127 | 0.0 | 7.0 | 0.00 | 0.00 | 0.00 | 27 | 1018.4 |
| 20260504225005 | 83 | 92 | 0.0 | 4.0 | 0.00 | 0.00 | 0.00 | 28 | 1018.4 |
| 20260504224405 | 83 | 109 | 2.0 | 9.0 | 0.00 | 0.00 | 0.00 | 26 | 1018.5 |
| 20260504223805 | 83 | 112 | 6.0 | 9.0 | 0.00 | 0.00 | 0.00 | 27 | 1018.5 |
| 20260504223205 | 84 | 137 | 0.0 | 4.0 | 0.00 | 0.00 | 0.00 | 25 | 1018.6 |
| 20260504222605 | 84 | 335 | 0.0 | 6.0 | 0.00 | 0.00 | 0.00 | 26 | 1018.6 |
| 20260504222005 | 84 | 325 | 1.0 | 6.0 | 0.00 | 0.00 | 0.00 | 27 | 1018.7 |
| 20260504221405 | 84 | 264 | 0.0 | 6.0 | 0.00 | 0.00 | 0.00 | 26 | 1018.7 |
| 20260504220805 | 84 | 298 | 0.0 | 11.0 | 0.00 | 0.00 | 0.00 | 25 | 1018.7 |
| 20260504220243 | 85 | 303 | 0.0 | 11.0 | 0.00 | 0.00 | 0.00 | 25 | 1018.7 |
| 20260504215631 | 86 | 18 | 1.0 | 7.0 | 0.00 | 0.00 | 0.00 | 25 | 1018.8 |
| 20260504215018 | 85 | 100 | 1.0 | 7.0 | 0.00 | 0.00 | 0.00 | 23 | 1018.8 |
| 20260504214405 | 85 | 335 | 0.0 | 12.0 | 0.00 | 0.00 | 0.00 | 23 | 1018.9 |
| 20260504213805 | 85 | 41 | 0.0 | 9.0 | 0.00 | 0.00 | 0.00 | 24 | 1019.0 |
| 20260504213205 | 84 | 42 | 2.0 | 7.0 | 0.00 | 0.00 | 0.00 | 24 | 1019.1 |
| 20260504212605 | 85 | 23 | 0.0 | 11.0 | 0.00 | 0.00 | 0.00 | 26 | 1019.1 |
| 20260504212005 | 85 | 27 | 0.0 | 14.0 | 0.00 | 0.00 | 0.00 | 24 | 1019.2 |
| 20260504211405 | 84 | 19 | 6.0 | 10.0 | 0.00 | 0.00 | 0.00 | 27 | 1019.2 |
| 20260504210806 | 83 | 295 | 2.0 | 9.0 | 0.00 | 0.00 | 0.00 | 25 | 1019.3 |
| 20260504210205 | 83 | 277 | 0.0 | 13.0 | 0.00 | 0.00 | 0.00 | 28 | 1019.3 |
| 20260504205605 | 84 | 265 | 4.0 | 12.0 | 0.00 | 0.00 | 0.00 | 30 | 1019.5 |
| 20260504205005 | 83 | 279 | 4.0 | 7.0 | 0.00 | 0.00 | 0.00 | 29 | 1019.6 |
| 20260504204405 | 83 | 277 | 0.0 | 9.0 | 0.00 | 0.00 | 0.00 | 30 | 1019.7 |
| 20260504203817 | 83 | 311 | 2.0 | 10.0 | 0.00 | 0.00 | 0.00 | 31 | 1019.7 |
| 20260504203230 | 84 | 303 | 0.0 | 10.0 | 0.00 | 0.00 | 0.00 | 31 | 1019.9 |
| 20260504202605 | 82 | 303 | 4.0 | 13.0 | 0.00 | 0.00 | 0.00 | 34 | 1020.0 |
| 20260504202005 | 81 | 227 | 0.0 | 11.0 | 0.00 | 0.00 | 0.00 | 33 | 1020.0 |
| 20260504201405 | 82 | 277 | 5.0 | 11.0 | 0.00 | 0.00 | 0.00 | 32 | 1020.2 |
| 20260504200817 | 81 | 317 | 2.0 | 8.0 | 0.00 | 0.00 | 0.00 | 34 | 1020.3 |
| 20260504200205 | 80 | 310 | 0.0 | 14.0 | 0.00 | 0.00 | 0.00 | 35 | 1020.4 |
| 20260504195605 | 80 | 299 | 2.0 | 9.0 | 0.00 | 0.00 | 0.00 | 35 | 1020.5 |
| 20260504195005 | 79 | 221 | 2.0 | 14.0 | 0.00 | 0.00 | 0.00 | 35 | 1020.5 |
| 20260504194405 | 79 | 246 | 3.0 | 11.0 | 0.00 | 0.00 | 0.00 | 37 | 1020.5 |
| 20260504193805 | 79 | 2 | 2.0 | 9.0 | 0.00 | 0.00 | 0.00 | 37 | 1020.6 |
| 20260504193205 | 80 | 288 | 1.0 | 8.0 | 0.00 | 0.00 | 0.00 | 38 | 1020.7 |
| 20260504192605 | 80 | 282 | 0.0 | 11.0 | 0.00 | 0.00 | 0.00 | 38 | 1020.7 |
| 20260504192005 | 79 | 292 | 5.0 | 9.0 | 0.00 | 0.00 | 0.00 | 37 | 1020.8 |
| 20260504191405 | 78 | 207 | 0.0 | 11.0 | 0.00 | 0.00 | 0.00 | 39 | 1020.8 |
| 20260504190805 | 79 | 315 | 0.0 | 9.0 | 0.00 | 0.00 | 0.00 | 40 | 1020.9 |
| 20260504190205 | 78 | 297 | 2.0 | 12.0 | 0.00 | 0.00 | 0.00 | 38 | 1021.0 |
| 20260504185605 | 79 | 270 | 2.0 | 13.0 | 0.00 | 0.00 | 0.00 | 41 | 1021.1 |
| 20260504185005 | 77 | 280 | 4.0 | 8.0 | 0.00 | 0.00 | 0.00 | 39 | 1021.1 |
| 20260504184405 | 76 | 311 | 0.0 | 9.0 | 0.00 | 0.00 | 0.00 | 40 | 1021.3 |
| 20260504183805 | 75 | 284 | 2.0 | 11.0 | 0.00 | 0.00 | 0.00 | 40 | 1021.4 |
| 20260504183205 | 77 | 262 | 0.0 | 10.0 | 0.00 | 0.00 | 0.00 | 41 | 1021.5 |
| 20260504182605 | 76 | 303 | 2.0 | 9.0 | 0.00 | 0.00 | 0.00 | 43 | 1021.5 |
| 20260504182017 | 76 | 284 | 2.0 | 8.0 | 0.00 | 0.00 | 0.00 | 45 | 1021.6 |
| 20260504181405 | 75 | 316 | 2.0 | 4.0 | 0.00 | 0.00 | 0.00 | 45 | 1021.6 |
| 20260504180805 | 74 | 36 | 0.0 | 7.0 | 0.00 | 0.00 | 0.00 | 44 | 1021.8 |
| 20260504180217 | 73 | 310 | 4.0 | 9.0 | 0.00 | 0.00 | 0.00 | 46 | 1021.9 |
| 20260504175605 | 73 | 231 | 2.0 | 10.0 | 0.00 | 0.00 | 0.00 | 45 | 1021.8 |
| 20260504175005 | 73 | 289 | 2.0 | 9.0 | 0.00 | 0.00 | 0.00 | 48 | 1021.9 |
| 20260504174430 | 73 | 349 | 0.0 | 9.0 | 0.00 | 0.00 | 0.00 | 47 | 1021.9 |
| 20260504173205 | 73 | 290 | 3.0 | 9.0 | 0.00 | 0.00 | 0.00 | 51 | 1022.0 |
| 20260504172605 | 72 | 271 | 1.0 | 11.0 | 0.00 | 0.00 | 0.00 | 50 | 1022.1 |
| 20260504172006 | 71 | 298 | 2.0 | 11.0 | 0.00 | 0.00 | 0.00 | 52 | 1022.2 |
| 20260504171405 | 71 | 273 | 0.0 | 9.0 | 0.00 | 0.00 | 0.00 | 50 | 1022.3 |
| 20260504170806 | 70 | 313 | 3.0 | 11.0 | 0.00 | 0.00 | 0.00 | 52 | 1022.3 |
| 20260504170205 | 70 | 256 | 3.0 | 11.0 | 0.00 | 0.00 | 0.00 | 55 | 1022.4 |
| 20260504160205 | 62 | 192 | 0.0 | 7.0 | 0.00 | 0.00 | 0.00 | 70 | 1023.2 |
| 20260504150805 | 57 | 285 | 0.0 | 4.0 | 0.00 | 0.00 | 0.00 | 80 | 1023.6 |
| 20260504150229 | 56 | 252 | 0.0 | 6.0 | 0.00 | 0.00 | 0.00 | 81 | 1023.6 |
| 20260504140829 | 54 | 175 | 0.0 | 2.0 | 0.00 | 0.00 | 0.00 | 85 | 1023.3 |
| 20260504140205 | 54 | 152 | 0.0 | 3.0 | 0.00 | 0.00 | 0.00 | 85 | 1023.3 |
| 20260504130806 | 53 | 171 | 0.0 | 3.0 | 0.00 | 0.00 | 0.00 | 87 | 1023.2 |
| 20260504130230 | 52 | 354 | 0.0 | 0.0 | 0.00 | 0.00 | 0.00 | 88 | 1023.1 |
| 20260504120230 | 49 | 163 | 0.0 | 0.0 | 0.00 | 0.00 | 0.00 | 89 | 1022.8 |
| 20260504110205 | 46 | 9 | 0.0 | 0.0 | 0.00 | 0.00 | 0.00 | 89 | 1022.5 |
| 20260504100217 | 46 | 89 | 0.0 | 0.0 | 0.00 | 0.00 | 0.00 | 89 | 1022.9 |
| 20260504082005 | 45 | 75 | 0.0 | 0.0 | 0.00 | 0.00 | 0.00 | 86 | 1023.0 |
| 20260504081405 | 45 | 54 | 0.0 | 0.0 | 0.00 | 0.00 | 0.00 | 86 | 1023.2 |
| 20260504080805 | 45 | 54 | 0.0 | 0.0 | 0.00 | 0.00 | 0.00 | 85 | 1023.3 |
| 20260504080217 | 45 | 54 | 0.0 | 0.0 | 0.00 | 0.00 | 0.00 | 85 | 1023.3 |
| 20260504070205 | 46 | 96 | 0.0 | 2.0 | 0.00 | 0.00 | 0.00 | 84 | 1023.6 |
| 20260504060205 | 49 | 128 | 1.0 | 0.0 | 0.00 | 0.00 | 0.00 | 81 | 1023.2 |